[Date Prev][Date Next][Thread Prev][Thread Next] - [Date Index][Thread Index][Author Index]
LATEST KEPS
- Subject: [sarex] LATEST KEPS
- From: Arthur Rowe <azrowe80@xxxxxxxxxxx>
- Date: Fri, 10 Aug 2007 18:23:24 -0400
ISS (ZARYA)
1 25544U 98067A 07222.35368700 .00011045 00000-0 72917-4 0 7523
2 25544 51.6321 184.1545 0008259 224.3028 293.2274 15.76181303499324
STS 118
1 32008U 07035A 07222.35432815 .00038640 00000-0 20205-3 0 109
2 32008 51.6328 184.1633 0018368 166.4893 350.9981 15.80197263 220
----
Sent via sarex@amsat.org. Opinions expressed are those of the author.
Not an AMSAT member? Join now to support the amateur satellite program!
Subscription settings: http://amsat.org/mailman/listinfo/sarex
AMSAT Home